{"data":{"norad_id":65947,"intl_designator":"2025-228A","name":"KUIPER-00101","alt_names":[],"object_type":"PAYLOAD","status":"ACTIVE","operator":null,"country":"US","launch_date":"2025-10-14","launch_site_code":"AFETR","launch_vehicle":null,"mission":null,"orbit_class":"UNKNOWN","rcs_meters":null,"size_class":null,"mass_kg":null,"dimensions":null,"purposes":[],"wikipedia_slug":null,"has_3d_model":false,"image_url":null,"decayed_at":null,"tle_current":{"epoch":"2026-05-25T01:43:06.538080Z","epoch_age_seconds":65006,"freshness":"FRESH","line1":"1 65947U 25228A   26145.07160345  .00000700  00000+0  12082-3 0  9996","line2":"2 65947  51.8993  22.8032 0000969 101.5643 258.5428 14.79931381 34545","mean_motion":14.79931381,"eccentricity":9.69e-5,"inclination_deg":51.8993,"raan_deg":22.8032,"arg_perigee_deg":101.5643,"mean_anomaly_deg":258.5428,"bstar":0.00012082,"rev_number":3454,"period_min":97.30180861676,"perigee_km":628.86169598846,"apogee_km":630.21978393447,"semimajor_km":7007.6777399615,"source":"CELESTRAK","updated_at":"2026-05-25T13:38:05.843922Z"}}}